Location: Unspecified
(0.0000°N, 0.0000°E)
Time: 02:35:57
(UTC+00:00)

CZ-3C DEB - Pass Details

Date: 18 February 2026
Orbit: 408 x 32633 km, 21.5° (Epoch: 28 September)

Event Time Altitude Azimuth Distance (km) Brightness Sun altitude
Exits shadow 03:21:05 43° 309° (NW) 12,192 ? -42.1°
Maximum altitude 05:51:44 63° 332° (NNW) 30,379 ? -5.4°
Drops below altitude 10° 11:39:12 10° 126° (SE) 4,979 ? 75.6°
Sets 11:41:15 0° 122° (ESE) 5,329 ? 75.9°
